User: anonymous   Login
Location: Sundre
(51.7972°N, 114.6405°W)
Time: 10:42:53
(UTC-07:00)
Language:

M-CUBED/EXP-1 PRIME - Orbit

View from above orbital plane
View from above orbital plane
View from above satellite
View from above satellite

Ground track
Ground track

The orbit data is extracted from the following two-line orbital elements,

1 37855U 11061F   20024.55634378 +.00000442 +00000-0 +29955-4 0  9990
2 37855 101.7268 038.2416 0172073 144.8810 216.3889 15.05950213449392
Epoch (UTC): 24 January 2020 13:21:08
Eccentricity: 0.0172073
inclination: 101.7268°
perigee height: 429 km
apogee height: 668 km
right ascension of ascending node: 38.2416°
argument of perigee: 144.8810°
revolutions per day: 15.05950213
mean anomaly at epoch: 216.3889°
orbit number at epoch: 44939

The dashed part of the orbit path shows where the satellite is in the earth's shadow,  

DLR